Regional Weather Roundup
Issued by NWS

Home | Current Version | Previous Version | Graphics & Text | Print | Product List | Glossary On
Versions: 1 2 3 4 5 6 7 8 9 10 11 12 13 14 15 16 17 18 19 20 21 22 23 24 25 26 27 28 29 30 31 32 33 34 35 36 37 38 39 40 41 42 43 44 45 46 47 48 49 50
000
ASUS45 KSLC 100110
RWRUT

UTAH REGIONAL WEATHER ROUNDUP
NATIONAL WEATHER SERVICE SALT LAKE CITY UT
600 PM MST FRI DEC 09 2016

UTZ001>011-023>025-100200-

NORTHERN UTAH

CITY           SKY/WX    TMP DP  RH WIND       PRES   REMARKS
BRIGHAM CITY     N/A     34  31  90 SE5       30.12F WCI  30
HILL AFB       CLOUDY    38  31  76 N3        30.11F
LOGAN          CLOUDY    34  34 100 CALM      30.11F FOG
OGDEN          CLOUDY    37  32  82 VRB5      30.11F WCI  33
SALT LAKE CITY CLOUDY    33  29  85 N5        30.11F WCI  29
WENDOVER       CLOUDY    28  21  74 W5        30.12S WCI  23
HEBER CITY     MOCLDY    36  30  80 N5        30.11F WCI  32

$$

UTZ011>015-024>027-100200-

CENTRAL/NORTHEAST UTAH

CITY           SKY/WX    TMP DP  RH WIND       PRES   REMARKS
PROVO AIRPORT  MOCLDY    36  29  75 CALM      30.14F
MOAB/CANYONLAN CLEAR     31  10  41 N7        30.25F WCI  24
DELTA          CLOUDY    37  27  65 SE7       30.14F WCI  32
PRICE          MOCLDY    30  10  43 E6        30.23R WCI  24
ROOSEVELT      CLOUDY    30  21  69 CALM      30.24R
VERNAL         CLOUDY    29  14  53 CALM      30.20F

$$

UTZ013>016-019>022-027-100200-

SOUTHERN UTAH

CITY           SKY/WX    TMP DP  RH WIND       PRES   REMARKS
BRYCE CANYON   PTCLDY    29  21  72 S5        30.26S WCI  24
CEDAR CITY     PTCLDY    40  30  67 S10       30.20S WCI  33
MILFORD        MOCLDY    48  30  49 S17       30.16S
ST GEORGE      MOCLDY    48  23  37 CALM      30.24F
HANKSVILLE     PTCLDY    27   5  39 CALM      30.28S
BLANDING       MOCLDY    39  22  50 CALM      30.34S

$$

REGIONAL REPORTS     COLORADO/ARIZONA

CITY           SKY/WX    TMP DP  RH WIND       PRES   REMARKS
CRAIG, CO      CLOUDY    33  26  75 E7        30.18S WCI  27
GRAND JUNCTION CLOUDY    31  20  63 NE5       30.26S WCI  26
RIFLE, CO      CLOUDY    31  21  66 CALM      30.26S
MONTROSE, CO   CLOUDY    34  20  56 CALM      30.27S
CORTEZ, CO     CLOUDY    33  25  72 NE5       30.27S WCI  29
COLORADO CITY    N/A     45  34  65 NW3       30.26S
PAGE, AZ       CLEAR     42  15  33 CALM      30.24S
GRAND CANYON   PTCLDY    35  31  85 CALM      30.27S
KINGMAN, AZ    CLEAR     49  28  44 E3        30.21S
FLAGSTAFF, AZ  MOCLDY    36  31  82 SW3       30.26F

$$

REGIONAL REPORTS    NEVADA/IDAHO/WYOMING

CITY           SKY/WX    TMP DP  RH WIND       PRES   REMARKS
LAS VEGAS, NV  MOCLDY    55  12  18 CALM      30.21F
ELY, NY        CLOUDY    32  21  64 E6        30.17S WCI  26
ELKO, NV       CLOUDY    39  26  59 NW5       30.07F
POCATELLO, ID  LGT RAIN  38  32  79 S14       30.06F WCI  30
BURLEY, ID     CLOUDY    36  35  96 CALM      30.02F
FORT BRIDGER,  CLOUDY    36  30  78 SW9       30.11F WCI  29
EVANSTON, WY   CLOUDY    35  26  69 SW13      30.10F WCI  26
ROCK SPRINGS,  CLOUDY    35  27  72 W25       30.08F WCI  23
KEMMERER, WY     N/A     32  32 100 W9        30.07F WCI  24

$$



USA.gov is the U.S. government's official web portal to all federal, state and local government web resources and services.